Flag for Cameroon Weather past 2 weeks in Douala, Cameroon

Now
75 °F

Passing clouds.


Feels Like: 73 °F
Forecast: 74 / 86 °F
Wind: No wind

Location: Douala Obs.


UV Index: 3 (Moderate)

Visibility: N/A


Pressure: 29.83 "Hg

Humidity: 100%

Dew point: 75 °F

Location of DoualaLocation

Historic Weather in Douala

°F

Douala temperature yesterday

Maximum temperature yesterday: 81 °F (at 5:00 PM)
Minimum temperature yesterday: 75 °F (at 10:00 AM)
Average temperature yesterday: 78 °F

Past Weeks' High & Low Weather Summary

 TemperatureHumidityPressure
High93 °F (Apr 17, 2:00 PM)100% (Apr 11, 12:00 AM)29.95 "Hg (Apr 11, 12:00 AM)
Low72 °F (Apr 12, 9:00 PM)56% (Apr 12, 2:00 PM)29.71 "Hg (Apr 12, 3:00 PM)
Average81 °F84%29.84 "Hg
* Reported Apr 9 1:00 PM — Apr 21 4:00 AM, Douala, Weather by CustomWeather, © 2014

Note: Actual official high and low records may vary slightly from our data, if they occured in-between our weather recording intervals... More about our weather records

Advertising

Historic Weather Conditions — Data for Previous 24 hours

 ConditionsComfort  
Time TempWeatherWind HumidityBarometerVisibility
4:00 AM
Apr 21
75 °FPassing clouds.No wind100%29.83 "HgN/A
3:00 AM75 °FPassing clouds.No wind94%29.80 "HgN/A
2:00 AM75 °FPassing clouds.3 mph100%29.80 "HgN/A
1:00 AM75 °FPassing clouds.5 mph100%29.83 "Hg5 mi
12:00 AM75 °FPassing clouds.3 mph94%29.86 "Hg5 mi
11:00 PM
Apr 20
77 °FPartly cloudy.3 mph94%29.86 "Hg5 mi
10:00 PM75 °FPartly cloudy.3 mph100%29.86 "Hg5 mi
9:00 PM77 °FPassing clouds.2 mph94%29.83 "Hg5 mi
8:00 PM77 °FPassing clouds.2 mph94%29.83 "Hg5 mi
7:00 PM77 °FPassing clouds.3 mph94%29.80 "Hg5 mi
6:00 PM79 °FBroken clouds.3 mph89%29.80 "HgN/A
5:00 PM81 °FBroken clouds.2 mph79%29.77 "HgN/A
4:00 PM79 °FThunderstorms. Partly sunny.3 mph84%29.77 "HgN/A
3:00 PM79 °FThunderstorms. Partly sunny.3 mph89%29.80 "HgN/A
2:00 PM77 °FThunderstorms. Partly sunny.5 mph94%29.83 "Hg5 mi
1:00 PM77 °FThunderstorms. Partly sunny.No wind94%29.86 "Hg4 mi
12:00 PM77 °FThunderstorms. Broken clouds.No wind89%29.89 "HgN/A
11:00 AM77 °FThunderstorms. Broken clouds.No wind89%29.92 "HgN/A
10:00 AM75 °FThunderstorms. Broken clouds.No wind94%29.92 "HgN/A
9:00 AM77 °FThunderstorms. Partly sunny.12 mph83%29.92 "HgN/A
8:00 AM79 °FThunderstorms. Broken clouds.16 mph94%29.89 "HgN/A
7:00 AM79 °FThunderstorms. Partly sunny.No wind94%29.86 "HgN/A
6:00 AM79 °FThunderstorms. Partly cloudy.5 mph94%29.86 "Hg5 mi
5:00 AM79 °FThunderstorms. Passing clouds.2 mph94%29.83 "Hg5 mi
Weather by CustomWeather, © 2014

See weather overview